Location: Unspecified
(42.6583°N, 0.0000°E)
Time: 00:40:26
(UTC+00:00)

NOAA 16 DEB - Visible Passes

Search period start: 04 April 2026 00:00
Search period end: 14 April 2026 00:00
Orbit: 809 x 855 km, 98.6° (Epoch: 28 March)

Date Brightness Start Highest point End Pass type
(mag) Time Alt. Az. Time Alt. Az. Time Alt. Az.
4 Apr ? 18:49:43 10° S 18:54:59 63° WSW 19:00:16 10° NNW visible
5 Apr ? 20:17:23 10° WSW 20:18:42 11° W 20:20:01 10° WNW visible
6 Apr ? 19:57:54 10° SW 20:01:09 16° W 20:04:24 10° NW visible
7 Apr ? 19:39:27 10° SW 19:43:38 23° W 19:47:49 10° NW visible
8 Apr ? 19:21:25 10° SSW 19:26:09 33° W 19:30:56 10° NNW visible
9 Apr ? 19:03:38 10° S 19:08:43 47° W 19:13:50 10° NNW visible
11 Apr ? 20:13:05 10° WSW 20:14:58 12° W 20:16:52 10° WNW visible
12 Apr ? 19:53:56 10° SW 19:57:23 17° W 20:00:52 10° NW visible
13 Apr ? 19:35:34 10° SSW 19:39:51 25° W 19:44:11 10° NW visible
